ARIANE 2 DEB, 27602

Orbit data source: Space-Track

ARIANE 2 DEB, 27602 is space debris in HEO originally from a launch on Fri, 27 Jan 1989 UTC launched from the French Guiana (FRGUI). Debris objects in space refer to the collection of defunct objects orbiting the Earth. Examples of debris include non-operational satellites, rocket bodies, and fragments generated from explosions, collisions, or faulty payload assembly.

Loading next visibility...
Identifier
27602, 1989-006AC
Orbit
HEO
Last TLE update
9 months ago
Origin
Manufacturer
EADS/LV
Mission
Spacecraft
Bus & Motor
Unknown
Mass
Unknown
Launch date (UTC)
1989-01-27 (36 years ago)
Launch vehicle
Unknown
Launch site
French Guiana (FRGUI)
Object type
Payload
Rocket body
Debris
Shape & HBR
Unknown
Radar Cross Section
Medium (>0.1 m² and <1 m²)

Expand to show TLE details & history

TLE from 9 months ago
0 ARIANE 2 DEB
1 27602U 89006AC  24286.22347082 -.00000082  00000-0  21762-2 0  9991
2 27602   6.8549 209.9154 7064144 200.5076 329.6963  2.25278809189220
Epoch: 2024-10-12T05:21Z
TLE epoch observation values (Epoch: 2024-10-12T05:21:47.878Z)
Latitude
6.86879°
Longitude
-167.91475°
Altitude
11,587.511 km
Speed
5.306 km/s
True Right ascension
19h 35m 16s
True Declination
6° 51' 09"
Sunlit
Object was in daylight at epoch
Visualization orbit readout
Latitude
-0.40137°
Longitude
-170.87734°
Altitude
22,188.462 km
Speed
3.419 km/s
Apparent Right ascension
19h 59m 08s
Apparent Declination
-8° 01' 23"
Sunlit
Object is in daylight
Visualization observer readout
Local Sidereal Time
12:18:41
Azimuth
79.72° E
Elevation
-24.324°
Doppler factor
1
Orbital elements
Apogee altitude
35,574.612 km
Perigee altitude
839.76 km
Semi-major axis
24,585.323 km
Eccentricity
0.70641
Inclination
6.8549°
RAAN
209.9154°
Arg. of periapsis
200.5076°
True anomaly
243.40053°
Mean anomaly
329.6963°
Eccentric anomaly
292.23014°
Mean motion
0.56303 °/min
Orbital period
639.4 mins
BSTAR
0.0021762
Loading maneuver chart data...
Loading SW <> Apogee altitude chart data...
Loading historical data...
Loading historical data...
Loading historical data...
Loading historical data...
Loading historical data...
Loading historical data...
Loading historical data...
|